Flag for Germany Weather past 2 weeks in Burg, Saxony-Anhalt, Germany

Now
31 °F

Light snow. Overcast.


Feels Like: 24 °F
Forecast: 20 / 35 °F
Wind: 8 mph from West

Location: Magdeburg

Current Time: Dec 29, 2014 at 4:27:16 AM

Latest Report: Dec 29, 2014 at 4:00 AM


Visibility: 2 mi

Pressure: 30.22 "Hg

Humidity: 87%

Dew point: 28 °F

Location of BurgLocation

Historic Weather in Burg — Graph

°F

Burg temperature yesterday

Maximum temperature yesterday: 29 °F (at 3:00 PM)
Minimum temperature yesterday: 17 °F (at 8:00 AM)
Average temperature yesterday: 23 °F

Past Weeks' High & Low Weather Summary

 TemperatureHumidityPressure
High56 °F (Dec 18, 11:00 PM)97% (Dec 17, 7:00 PM)30.40 "Hg (Dec 17, 7:00 PM)
Low17 °F (Dec 28, 8:00 AM)61% (Dec 25, 3:00 PM)29.62 "Hg (Dec 17, 5:00 PM)
Average40 °F83%29.96 "Hg
* Reported Dec 14 3:00 AM — Dec 29 3:00 AM, Burg, Weather by CustomWeather, © 2014

Note: Actual official high and low records may vary slightly from our data, if they occured in-between our weather recording intervals... More about our weather records

Advertising

Burg weather history for previous 24 hours

 ConditionsComfort  
Time TempWeatherWind HumidityBarometerVisibility
3:00 AM
Dec 29
31 °FLight snow. Ice fog.5 mph85%30.24 "Hg3 mi
2:00 AM30 °FOvercast.6 mph78%30.28 "Hg7 mi
1:00 AM28 °FOvercast.5 mph80%30.31 "Hg7 mi
12:00 AM27 °FPassing clouds.5 mph82%30.34 "Hg6 mi
11:00 PM
Dec 28
27 °FPassing clouds.3 mph83%30.37 "Hg6 mi
9:00 PM26 °FFog.2 mph89%30.40 "Hg4 mi
8:00 PM26 °FFog.3 mph89%30.39 "Hg4 mi
7:00 PM25 °FFog.3 mph89%30.38 "Hg4 mi
6:00 PM25 °FFog.2 mph90%30.37 "Hg4 mi
5:00 PM25 °FClear.1 mph91%30.36 "Hg6 mi
4:00 PM27 °FPassing clouds.1 mph88%30.33 "Hg7 mi
3:00 PM29 °FLow clouds.2 mph84%30.31 "Hg7 mi
2:00 PM28 °FOvercast.2 mph81%30.29 "Hg6 mi
1:00 PM27 °FOvercast.2 mph81%30.29 "Hg6 mi
12:00 PM25 °FOvercast.1 mph80%30.29 "Hg6 mi
11:00 AM23 °FOvercast.2 mph84%30.27 "Hg6 mi
10:00 AM20 °FPassing clouds.1 mph87%30.24 "Hg5 mi
9:00 AM17 °FPassing clouds.2 mph92%30.19 "Hg5 mi
8:00 AM17 °FPassing clouds.1 mph93%30.16 "Hg5 mi
7:00 AM19 °FClear.2 mph88%30.11 "Hg5 mi
6:00 AM20 °FPassing clouds.3 mph83%30.08 "Hg6 mi
5:00 AM21 °FOvercast.3 mph84%30.05 "Hg5 mi
Weather by CustomWeather, © 2014

See weather overviewHow to use our weather pages